Regional Weather Roundup
Issued by NWS

Home | Current Version | Previous Version | Text Only | Print | Product List | Glossary On
Versions: 1 2 3 4 5 6 7 8 9 10 11 12 13 14 15 16 17 18 19 20 21 22 23 24 25 26 27 28 29 30 31 32 33 34 35 36 37 38 39 40 41 42 43 44 45 46 47 48 49 50
000
ASUS43 KDTX 231110
RWRMI
MICHIGAN HOURLY REGIONAL WEATHER ROUNDUP
NATIONAL WEATHER SERVICE DETROIT/PONTIAC MI
700 AM EDT FRI JUN 23 2017

NOTE: "FAIR" INDICATES FEW OR NO CLOUDS BELOW 12,000 FEET WITH NO
SIGNIFICANT WEATHER AND/OR OBSTRUCTION TO VISIBILITY.

MIZ047>049-052>055-059>063-066>070-074>076-081>083-231200-
SOUTHEAST LOWER MICHIGAN

CITY           SKY/WX    TMP DP  RH WIND       PRES   REMARKS
ADRIAN         LGT RAIN  70  70 100 SW9       29.66F FOG
ALMA           HVY RAIN  65  65  99 SE6       29.63F
ANN ARBOR      RAIN      70  70 100 S7        29.64F FOG
BAD AXE        RAIN      65  65  99 SW3       29.66R
DETROIT CITY   CLOUDY    72  68  87 SW7       29.64F
DETROIT        LGT RAIN  72  69  90 SW13      29.66S
FLINT          CLOUDY    67  66  97 CALM      29.63F FOG
GROSSE ILE     RAIN      71  69  93 SW7       29.65S
HILLSDALE      CLOUDY    70  68  94 SW7       29.66F FOG
HOWELL         RAIN      70  67  90 S5        29.64F

CITY           SKY/WX    TMP DP  RH WIND       PRES   REMARKS
JACKSON        CLOUDY    71  68  90 S7        29.64F
LAMBERTVILLE   RAIN      70  69  96 SW6       29.65F
LANSING        CLOUDY    72  68  87 SW8       29.62F FOG
LAPEER         RAIN      65  65  97 CALM      29.65F
MASON          CLOUDY    70  69  97 CALM      29.63F
MONROE         RAIN      70  69  98 SW5       29.64F
MT. CLEMENS    CLOUDY    73  70  92 SW8       29.62F
PONTIAC        CLOUDY    70  70 100 S6        29.63F
PORT HURON     HVY RAIN  66  63  88 NE9       29.66F
TRI CITIES     RAIN      66  66 100 SE9       29.61F FOG
MIDLAND        LGT RAIN  66  65  96 S3        29.61F
TROY           LGT RAIN  72  68  86 SW7       29.65F
SAGINAW HB     RAIN      64  61  88 SE3       29.63F
$$
MIZ043>046-050>051-056>058-064>065-071>073-077>080-231200-
SOUTHWEST LOWER MICHIGAN

CITY           SKY/WX    TMP DP  RH WIND       PRES   REMARKS
BATTLE CREEK   CLOUDY    71  71 100 SW9       29.63F FOG
BENTON HARBOR  LGT RAIN  69  66  90 W13       29.65R
BIG RAPIDS     LGT RAIN  64  63  94 CALM      29.65R
COLDWATER      DRIZZLE   71  71 100 SW7       29.64F
FREMONT        LGT RAIN  65  65 100 CALM      29.64R
HOLLAND        CLOUDY    68  66  93 VRB6G17   29.62F
GRAND RAPIDS   LGT RAIN  69  69 100 N18       29.63R FOG
IONIA          HVY RAIN  67  66  96 N12       29.61S
KALAMAZOO      CLOUDY    72  69  90 SW9       29.62F
LUDINGTON      LGT RAIN  64  64 100 NW6       29.64F
MARSHALL       CLOUDY    71  70  98 SW7       29.63F
MOUNT PLEASANT CLOUDY    65  64  97 CALM      29.61S
MUSKEGON       LGT RAIN  68  65  90 NW3       29.64S
SOUTH HAVEN    CLOUDY    70  68  93 NW10G17   29.64R
$$
MIZ016>042-231200-
NORTHERN LOWER MICHIGAN

CITY           SKY/WX    TMP DP  RH WIND       PRES   REMARKS
ALPENA         LGT RAIN  66  66 100 VRB3      29.61F
BEAVER ISLAND  FOG       61  61 100 CALM      29.62S VSB<1/4
BELLAIRE       RAIN      65  63  94 CALM      29.63R
CADILLAC       RAIN      64  63  97 CALM      29.65R
CHARLEVOIX     FOG       61  61 100 W5        29.65R VSB 3/4
FRANKFORT      RAIN      64  64 100 W3        29.63F
GAYLORD        LGT RAIN  64  62  93 SW3       29.63S
GRAYLING       DRIZZLE   64  63  97 W3        29.64S
HARBOR SPRINGS FOG       60  60 100 SW5       29.61F VSB 1/4
HOUGHTON LAKE  CLOUDY    65  63  93 CALM      29.64F
MANISTEE       CLOUDY    64  64 100 W3        29.64S
OSCODA         HVY RAIN  66  65  96 SW6       29.62S
PELLSTON       CLOUDY    64  62  93 W3        29.61F
ROGERS CITY    CLOUDY    64  63  97 CALM      29.61F FOG
TRAVERSE CITY  LGT RAIN  66  64  93 W3        29.63R FOG
$$
MIZ007>008-015-231200-
EASTERN UPPER MICHIGAN

CITY           SKY/WX    TMP DP  RH WIND       PRES   REMARKS
KINROSS        FOG       60  60 100 NW3       29.61S VSB 1/4
MACKINAC ISLAN FOG       61  61 100 W6        29.60F VSB 1/4
NEWBERRY       FOG       59  58  97 CALM      29.61F VSB<1/4
S. S. MARIE    FOG       60  59  96 CALM      29.60S VSB 1/4
MUNISING         N/A     57  56  96 S5        29.60F
$$
MIZ004>006-011>014-085-231200-
CENTRAL UPPER MICHIGAN

CITY           SKY/WX    TMP DP  RH WIND       PRES   REMARKS
MANISTIQUE     FOG       57  54  90 CALM      29.61S VSB 1/4
ESCANABA       CLEAR     57  57 100 NW3       29.63R FOG
MENOMINEE      CLEAR     61  60  97 W5        29.65R
SAWYER-GWINN   PTCLDY    54  52  94 W6        29.62F
$$
MIZ001>003-009>011-084-231200-
WESTERN UPPER MICHIGAN

CITY           SKY/WX    TMP DP  RH WIND       PRES   REMARKS
IRON MOUNTAIN  CLEAR     55  53  93 CALM      29.64S
HOUGHTON       CLEAR     58  49  72 SW3       29.58F
COPPER HARBOR    N/A     58  50  75 VRB6      29.56F
IRONWOOD       CLEAR     52  49  89 SW6       29.65R
$$

ABBREVIATIONS USED IN REMARKS
   TC - TEMPERATURE IN CELSIUS
  WCI - WIND CHILL INDEX
   HX - HEAT INDEX
  VSB - VISIBILITY





USA.gov is the U.S. government's official web portal to all federal, state and local government web resources and services.